Regional Weather Roundup
Issued by NWS

Home | Current Version | Previous Version | Graphics & Text | Print | Product List | Glossary On
Versions: 1 2 3 4 5 6 7 8 9 10 11 12 13 14 15 16 17 18 19 20 21 22 23 24 25 26 27
000
ASUS45 KSLC 222010
RWRUT

UTAH REGIONAL WEATHER ROUNDUP
NATIONAL WEATHER SERVICE SALT LAKE CITY UT
200 PM MDT SAT JUL 22 2017

UTZ001>011-023>025-222100-

NORTHERN UTAH

CITY           SKY/WX    TMP DP  RH WIND       PRES   REMARKS
BRIGHAM CITY   SUNNY     92  27  10 CALM      30.13F
HILL AFB       SUNNY     90  44  20 N3        30.16F
LOGAN          SUNNY     90  32  12 MISG      30.15F
OGDEN          SUNNY     91  45  20 VRB6      30.12F
SALT LAKE CITY MOSUNNY   96  49  20 W10       30.09F HX  93
TOOELE VALLEY  SUNNY     90  55  31 N15       30.12S
WENDOVER       SUNNY     92  31  11 E9        30.12F
HEBER CITY     SUNNY     91  43  18 NW5       30.19F
WEST JORDAN    SUNNY     92  62  36 N6        30.13F HX  92

$$

UTZ011>015-024>027-222100-

CENTRAL/NORTHEAST UTAH

CITY           SKY/WX    TMP DP  RH WIND       PRES   REMARKS
PROVO AIRPORT  SUNNY     89  54  30 W7        30.13F
MOAB/CANYONLAN SUNNY     90  53  28 E9        30.10F
DELTA          SUNNY     91  43  18 CALM      30.12F
PRICE          MOSUNNY   88  51  28 S8        30.22F
ROOSEVELT      SUNNY     88  45  22 CALM      30.22F
VERNAL         SUNNY     88  50  27 VRB6      30.20F

$$

UTZ013>016-019>022-027-222100-

SOUTHERN UTAH

CITY           SKY/WX    TMP DP  RH WIND       PRES   REMARKS
BRYCE CANYON   PTSUNNY   78  52  40 SE10      30.35F
CEDAR CITY     SUNNY     93  47  20 N7        30.17F
MILFORD        SUNNY     96  45  17 N6G21     30.12F HX  92
ST GEORGE      CLEAR    101  52  19 SW7       29.94F HX  98
HANKSVILLE     SUNNY     91  46  21 CALM      30.14F
BLANDING       PTSUNNY   87  47  24 CALM      30.26F

$$

REGIONAL REPORTS     COLORADO/ARIZONA

CITY           SKY/WX    TMP DP  RH WIND       PRES   REMARKS
CRAIG, CO      CLOUDY    85  39  19 VRB5      30.27F
GRAND JUNCTION SUNNY     86  59  39 NW5       30.13F
RIFLE, CO      CLOUDY    88  51  28 N6        30.18F
MONTROSE, CO   CLOUDY    81  56  42 VRB3      30.22F
CORTEZ, CO     CLOUDY    80  54  40 NW3       30.19F
COLORADO CITY    N/A     97  50  20 W8G16     30.15F HX  94
PAGE, AZ       SUNNY     92  52  25 NE10G17   30.09F
GRAND CANYON   MOSUNNY   85  50  29 NE9G23    30.28F
KINGMAN, AZ    MOSUNNY   97  55  24 MISG      30.03F HX  95
FLAGSTAFF, AZ  CLOUDY    76  51  41 NE14      30.30F

$$

REGIONAL REPORTS    NEVADA/IDAHO/WYOMING

CITY           SKY/WX    TMP DP  RH WIND       PRES   REMARKS
LAS VEGAS, NV  MOSUNNY  104  51  17 S7        29.91F HX 101
ELY, NY        SUNNY     91  39  16 NE6G22    30.23F
ELKO, NV       SUNNY     95  28   9 N6        30.15F
POCATELLO, ID  SUNNY     85  39  19 NW8       30.20F
BURLEY, ID     SUNNY     83  38  20 NW6       30.16F
FORT BRIDGER,    N/A     84  27  12 S5        30.36F
EVANSTON, WY   MOSUNNY   84  32  15 VRB3      30.33F
ROCK SPRINGS,  SUNNY     84  24  11 VRB3      30.32F
KEMMERER, WY     N/A     82  27  13 W10       30.36F

$$




USA.gov is the U.S. government's official web portal to all federal, state and local government web resources and services.